Airfield :
LOGIN :

Register | Disclaimer

   EN    FR    IT 

 










Legend :    VFR   Marginal VFR   IFR   Intensive IFR   Very Intensive IFR
Visi :
Ceiling :
>= 8 km
>= 3000ft
5 to 8 km
1000 to 3000 ft
1500m to 5 km
500 to 1000 ft
800 to 1500m
200 to 500 ft
< 800m
< 200 ft
Symbols :   Thunderstorms  Fog  Heavy snow  Heavy precipitations  Wind > 20 kt
SIGMETs :     Misc.  Thunderstorms  Icing  Turbulence  Mountain Waves  Volcanic Ashes







- Airport Elevation : 2220 ft


LOXZ - Zeltweg AB

CURRENT METAR :
  • 251150Z 34003KT 40KM FEW060CU BKN300CI 22/10 Q1013 NOSIG

EXPIRED METARs :
  • 251120Z 06002KT 40KM FEW060CU BKN300CI 22/10 Q1014 NOSIG
  • 251050Z 03002KT 40KM FEW060CU BKN300CI 21/11 Q1014 NOSIG
  • 251020Z 05002KT 40KM FEW060CU BKN300CI 20/11 Q1015 NOSIG
  • 250950Z 01002KT 40KM FEW060CU BKN300CI 18/11 Q1015 NOSIG

TAF TAF LOXZ
Valid from the 25 at 12:00 until the 25 at 21:00 UTC


251115Z 2512/2521 VRB03KT 9999 FEW060 SCT280
PROB30
TEMPO 2514/2518 16008KT SHRA FEW040TCU SCT060
No reported NOTAMs for that airfield.



MET'MAP, your aeronautical weather chart ! - Copyright ORBIFLY December 2007 - Disclaimer

ORBIFLY MET'MAP TEAM :

Programming & Development : Alexandra Zaïnal
Concept & Development : Baudouin d'Aumeries
Co-Development & Prog : Marc-Olivier Méhu
Technical & hardware support : Manuel Goepfert

Contact : metmap@orbifly.com




SOURCES & CREDITS :

   NOAA